Regional Weather Roundup
Issued by NWS Grand Forks, ND

Home | Current Version | Previous Version | Text Only | Print | Product List | Glossary Off
Versions: 1 2 3 4 5 6 7 8 9 10 11 12 13 14 15 16 17 18 19 20 21 22 23 24 25 26 27 28 29 30 31 32 33 34 35 36 37 38 39 40 41 42 43 44 45 46 47 48 49 50

188
ASUS43 KFGF 261331
RWRFGF
PRAIRIE TO PINES  WEATHER ROUNDUP
NATIONAL WEATHER SERVICE EASTERN NORTH DAKOTA/GRAND FORKS ND
800 AM CDT MON JUN 26 2017

 **SATELLITE DATA USED TO AUGMENT SKY COVER AT AUTOMATED STATIONS**
 *****  WEATHER ACROSS EASTERN NORTH DAKOTA  *****

CITY           SKY/WX    TMP DP  RH WIND       PRES   REMARKS
GRAND FORKS    FAIR      56  47  71 W7        30.22R
GRAND FRKS AFB FAIR      58  45  63 NW7       30.23R
DEVILS LAKE    FAIR      56  45  66 W8        30.26R
FARGO          FAIR      56  45  66 W3        30.23S
WAHPETON ARPT  FAIR      54  43  66 NW6       30.25S
$$

 ***** WEATHER ACROSS CENTRAL AND WESTERN NORTH DAKOTA  *****

CITY           SKY/WX    TMP DP  RH WIND       PRES   REMARKS
BISMARCK       FAIR      48  45  89 CALM      30.29R
MINOT          FAIR      55  41  59 SW7       30.25S
JAMESTOWN      FAIR      53  46  77 NW5       30.26R
MINOT AFB      SUNNY     50  37  62 SW3       30.25S
GARRISON         N/A     51  44  77 CALM      30.26S
WILLISTON      FAIR      56  45  66 CALM      30.23F
DICKINSON      FAIR      52  43  71 S7        30.23F
HETTINGER      FAIR      51  42  71 SE6       30.27S
$$

 *****  OTHER AIRPORT OBSERVATIONS IN OUR AREA  *****

CITY           SKY/WX    TMP DP  RH WIND       PRES   REMARKS
WALHALLA       NOT AVBL
GRAFTON AIRPOR FAIR      59  45  58 W9        30.24R
VALLEY CITY AR FAIR      55  46  71 NW7       30.28R
CANDO          NOT AVBL
CAVALIER APRT  FAIR      59  45  58 W9        30.21S
GWINNER        CLOUDY    57  46  67 CALM      30.26R
SHEYENNE NWR     N/A     54  45  71 NW3       29.95S
ROLLA            N/A     57  43  58 W9        30.26S
 ***** THE ABOVE OBSERVATIONS ARE NON NWS ARE NOT QUALITY
       CONTROLLED AND MAY MIS-REPORT RAIN FOR SNOW...
$$

  *****  WEATHER ACROSS NORTHERN MINNESOTA  *****

CITY           SKY/WX    TMP DP  RH WIND       PRES   REMARKS
FLAG ISLAND    FAIR      54  45  71 W12       30.13S
WARROAD        FAIR      52  46  82 W5        30.18R
ROSEAU         FAIR      54  46  76 W8        30.18S
HALLOCK        FAIR      55  48  76 NW5       30.20S
THF RVR FALLS  FAIR      54  45  71 NW9       30.22R
BAUDETTE       FAIR      51  47  86 W7        30.16R
WASKISH        CLOUDY    52  46  82 NW5       30.17S
CROOKSTON      FAIR      54  46  76 NW5       30.23S
STEPHEN NDAWN    N/A     55  45  67 W7          N/A
GREENBUSH NDAW   N/A     54  46  76 W7          N/A
$$
  *****  WEATHER ACROSS CENTRAL AND WEST MINNESOTA  *****

CITY           SKY/WX    TMP DP  RH WIND       PRES   REMARKS
FOSSTON        FAIR      54  48  82 W6        30.22S
BEMIDJI        FAIR      52  45  77 NW10      30.20R
PARK RAPIDS    FAIR      53  43  68 NW8       30.20S
ELBOW LAKE     FAIR      54  47  78 N6        30.24S
WADENA         FAIR      54  46  76 NW8       30.21S
DETROIT LAKES  FAIR      54  45  71 NW9       30.24R
MOORHEAD       FAIR      54  45  71 CALM      30.25R
FERGUS FALLS   FAIR      55  46  71 NW5       30.22S
MORRIS MN      FAIR      55  48  76 NW6       30.23R
STAPLES        FAIR      54  43  66 NW7       30.21R
$$
  *****  WEATHER ELSEWHERE ACROSS MINNESOTA  *****

CITY           SKY/WX    TMP DP  RH WIND       PRES   REMARKS
DULUTH         FAIR      50  46  86 NW8       30.12R
INTRNTL FALLS  CLOUDY    52  49  89 W3        30.12F
ELY            FAIR      52  46  82 NW6       30.11S
CLOQUET        FAIR      54  46  76 NW8       30.14S
WHEATON        FAIR      54  46  76 NW5       30.27R
BRAINERD       FAIR      53  45  74 NW8       30.19S
HIBBING        FAIR      51  47  86 NW10      30.14R
ALEXANDRIA     FAIR      55  47  74 N8        30.23S
SAINT CLOUD    FAIR      53  46  77 NW8       30.19S
MINNEAPOLIS    FAIR      57  46  66 NW8       30.18R
$$

  *****  WEATHER ACROSS SOUTH DAKOTA  *****

CITY           SKY/WX    TMP DP  RH WIND       PRES   REMARKS
SIOUX FALLS    FAIR      56  52  86 NE5       30.23R
BROOKINGS      FAIR      51  47  86 VRB3      30.25R
WATERTOWN      FAIR      51  46  83 N3        30.24R
HURON          FAIR      52  49  89 N3        30.26R
SISSETON         N/A     56  44  64 NW7       30.25R
ABERDEEN       FAIR      52  46  80 N5        30.27R
MITCHELL       FAIR      56  52  86 N7        30.24S
PIERRE         FAIR      52  46  80 SE5       30.25R
MOBRIDGE       FAIR      56  47  71 N5        30.26R
RAPID CITY     FAIR      56  39  53 SW6       30.26S
$$

  *****  SOME WEATHER IN NEARBY STATES *****

CITY           SKY/WX    TMP DP  RH WIND       PRES   REMARKS
GLASGOW MT     FAIR      57  40  52 E16       30.13F
GREAT FALLS MT FAIR      63  42  46 S6        30.03F
CHEYENNE WY    FAIR      53  44  71 W8        30.33S
SCOTTSBLUFF NE FAIR      58  44  60 N7        30.25R
OMAHA NE       LGT RAIN  58  52  80 SE9       30.20R
DES MOINES IA  RAIN      56  54  93 SW8       30.20F FOG
DAVENPORT IA   CLOUDY    56  51  84 W13       30.18R
CHICAGO IL     FAIR      61  49  64 W9        30.11S
EAU CLAIRE WI  FAIR      52  46  80 W5        30.14R
LA CROSSE WI   FAIR      61  48  62 N9        30.14S
$$

  *****  SOME NATIONAL WEATHER *****

CITY           SKY/WX    TMP DP  RH WIND       PRES   REMARKS
LA GUARDIA NY  FAIR      71  53  52 NW6       30.03S
RALEIGH NC     FAIR      73  54  51 N5        30.14R
ATLANTA GA     FAIR      72  52  49 N10       30.19R
NEW ORLEANS LA PTSUNNY   78  70  76 E9        30.12R
OKLAHOMA CITY  PTSUNNY   69  59  70 S6        30.19S
ALBUQUERQUE NM FAIR      65  54  67 N6        30.31R
SALT LAKE CITY CLEAR     75  46  35 CALM      30.09R
LOS ANGELES CA FAIR      66  60  81 CALM      29.89R
BOISE ID       FAIR      68  44  42 SE17      29.96R
SEATTLE WA     CLOUDY    60  55  83 CALM      29.95S
$$

*** WEATHER ACROSS MANITOBA...SASKATCHEWAN AND ONTARIO ***
                ***ONTARIO***

CITY           SKY/WX    TMP DP  RH WIND       PRES   REMARKS
GERALDTON      PTSUNNY   55  45  67 W6        29.99S
THUNDER BAY    MOSUNNY   55  50  82 S5        30.03S
SIOUX LOOKOUT  MOSUNNY   55  46  71 N6        30.07S
TORONTO        CLOUDY    61  55  82 W7        29.98S
BIG TROUT LK   SUNNY     50  41  71 NW10      30.00S
PICKLE LAKE    PTSUNNY   54  46  76 NW7       30.02R
DRYDEN         SUNNY     54  48  82 W5        30.08S
KENORA         MOSUNNY   55  46  71 NW9       30.12S
$$
                *** MANITOBA***

CITY           SKY/WX    TMP DP  RH WIND       PRES   REMARKS
BRANDON        SUNNY     52  46  82 W8        30.23S
DAUPHIN        SUNNY     57  45  62 W9        30.19S
ISLAND LAKE    CLOUDY    54  48  82 W5        30.06R
PILOT MOUND      N/A     52  45  76 W5          N/A
THE PAS        MOSUNNY   59  48  67 W8        30.13S
THOMPSON       PTSUNNY   57  43  58 W8        29.99F
WINNIPEG       MOSUNNY   55  46  71 W12G17    30.17F
LYNN LAKE      SUNNY     63  39  42 W7        30.01F
CHURCHILL      CLOUDY    55  52  88 NW8       29.83F
GILLAM         LGT RAIN  54  46  76 SW10      29.94F
$$
                ***SASKATCHEWAN***

CITY           SKY/WX    TMP DP  RH WIND       PRES   REMARKS
ESTEVAN        MOSUNNY   54  45  71 SE5       30.24S
KINDERSLEY     MOSUNNY   54  43  66 SE17      30.06F
LLOYDMINSTER   CLOUDY    54  45  71 S18       30.01F
PRINCE ALBERT  PTSUNNY   55  45  67 SW5       30.17F
REGINA         MOSUNNY   50  41  71 SE8       30.21F
YORKTON        SUNNY     54  45  71 SW7       30.22S
N. BATTLEFORD  SUNNY     55  43  62 SE10      30.11F
LA RONGE       MOSUNNY   59  45  58 S5        30.09F
SASKATOON      PTSUNNY   55  39  54 S15       30.16F
SWIFT CURRENT  SUNNY     54  43  66 SE15      30.11F
$$
NOTE: THESE ARE AUTOMATED STATIONS WITH LIMITED QUALITY CONTROL
      "FAIR" INDICATES FEW OR NO CLOUDS BELOW 12,000 FEET WITH NO
      SIGNIFICANT WEATHER AND/OR OBSTRUCTIONS TO VISIBILITY.
      SKY/WX - SKY CONDITION AND SIGNIFICANT WEATHER.
      TMP - AIR TEMPERATURE.    DP   - DEWPOINT TEMPERATURE.
      RH  - RELATIVE HUMIDITY.  PRES - PRESSURE.
      HX  - HEAT INDEX.         WCI  - WIND CHILL INDEX.
$




USA.gov is the U.S. government's official web portal to all federal, state and local government web resources and services.